Charlottesville, VA

3:46 AM EST on January 19, 2017 (GMT -0500)
Charlottesville-Albemarle

Weather History for KCHO - February, 2011

Change the Weather History Date:

Monday, February 28, 2011

  Actual Average Record
Temperature  
Mean Temperature 59 °F 41 °F  
Max Temperature 73 °F 52 °F 79 °F (1918)
Min Temperature 45 °F 30 °F 5 °F (1934)
Degree Days  
Heating Degree Days 6 24  
Month to date heating degree days 608 752  
Since 1 July heating degree days 3246 3412  
Cooling Degree Days 0 0  
Month to date cooling degree days 1 0  
Year to date cooling degree days 1 0  
Growing Degree Days 9 (Base 50)    
Moisture  
Dew Point 48 °F    
Average Humidity 75    
Maximum Humidity 93    
Minimum Humidity 57    
Precipitation  
Precipitation 0.42 in 0.12 in 0.59 in (1982)
Month to date precipitation 1.68 2.70  
Year to date precipitation 2.58 5.47  
Sea Level Pressure  
Sea Level Pressure 29.76 in    
Wind  
Wind Speed 5 mph (SW)    
Max Wind Speed 21 mph    
Max Gust Speed 31 mph    
Visibility 8 miles    
Events Rain    
T = Trace of Precipitation, MM = Missing Value Source: NWS Daily Summary

Daily Weather History Graph

Daily Weather History Graph

Search for Another Location

Airport or City:

Trip Planner

Search our weather history database for the weather conditions in past years. The results will help you decide how hot, cold, wet, or windy it might be!

Date:

Astronomy

Feb. 28, 2011 Rise Set
Actual Time 6:47 AM EST 6:05 PM EST
Civil Twilight 6:20 AM EST 6:32 PM EST
Nautical Twilight 5:50 AM EST 7:02 PM EST
Astronomical Twilight 5:19 AM EST 7:33 PM EST
Moon 4:14 AM EST (2/28) 2:22 PM EST (2/28)
Length of Visible Light 12h 11m
Length of Day
11h 18m
Waning Crescent, 15% of the Moon is Illuminated
Feb 28
Waning Crescent
Mar 4
New
Mar 12
First Quarter
Mar 19
Full
Mar 26
Last Quarter

Hourly Weather History & Observations

Time (EST) Temp. Windchill Dew Point Humidity Pressure Visibility Wind Dir Wind Speed Gust Speed Precip Events Conditions
1:53 AM 51.1 °F - 42.1 °F 71% 29.88 in 10.0 mi NNE 3.5 mph - N/A   Scattered Clouds
2:53 AM 48.2 °F - 41.0 °F 76% 29.86 in 10.0 mi Calm Calm - N/A   Clear
3:53 AM 48.0 °F - 39.9 °F 74% 29.82 in 10.0 mi Calm Calm - N/A   Clear
4:53 AM 46.9 °F - 39.9 °F 77% 29.80 in 10.0 mi Calm Calm - N/A   Clear
5:53 AM 46.9 °F - 41.0 °F 80% 29.77 in 10.0 mi Calm Calm - 0.00 in   Clear
6:53 AM 46.0 °F 43.9 °F 41.0 °F 83% 29.76 in 10.0 mi Variable 4.6 mph - N/A   Clear
7:53 AM 48.0 °F - 41.0 °F 77% 29.74 in 10.0 mi SW 3.5 mph - N/A   Clear
8:53 AM 57.0 °F - 48.0 °F 72% 29.71 in 10.0 mi Variable 4.6 mph - N/A   Clear
9:53 AM 68.0 °F - 55.0 °F 63% 29.68 in 10.0 mi South 17.3 mph 25.3 mph N/A   Clear
10:53 AM 72.0 °F - 55.9 °F 57% 29.67 in 10.0 mi SSW 15.0 mph 21.9 mph N/A   Partly Cloudy
11:53 AM 69.1 °F - 57.0 °F 65% 29.69 in 6.0 mi Variable 6.9 mph 21.9 mph 0.00 in Rain Light Rain
12:53 PM 66.0 °F - 57.9 °F 75% 29.68 in 10.0 mi Calm Calm - 0.04 in   Overcast
1:53 PM 63.0 °F - 57.0 °F 81% 29.71 in 5.0 mi Calm Calm - 0.03 in Rain Light Rain
2:53 PM 60.1 °F - 55.9 °F 86% 29.73 in 4.0 mi Calm Calm - 0.11 in Rain Rain
3:47 PM 59.0 °F - 57.2 °F 94% 29.71 in 2.5 mi South 3.5 mph - 0.10 in Rain Light Rain
3:53 PM 59.0 °F - 57.0 °F 93% 29.70 in 2.5 mi South 3.5 mph - 0.11 in Rain Rain
4:53 PM 57.9 °F - 55.0 °F 90% 29.75 in 2.5 mi Calm Calm - 0.09 in Rain Light Rain
5:21 PM 57.2 °F - 53.6 °F 88% 29.73 in 3.0 mi South 6.9 mph - 0.03 in Rain Rain
5:53 PM 57.0 °F - 55.0 °F 93% 29.68 in 10.0 mi SSW 13.8 mph 23.0 mph 0.04 in   Mostly Cloudy
6:53 PM 57.0 °F - 54.0 °F 89% 29.71 in 10.0 mi Calm Calm - N/A   Clear
7:53 PM 55.0 °F - 53.1 °F 93% 29.72 in 6.0 mi Calm Calm - N/A   Scattered Clouds
8:53 PM 54.0 °F - 46.0 °F 75% 29.80 in 10.0 mi North 13.8 mph 25.3 mph N/A   Overcast
9:53 PM 52.0 °F - 39.0 °F 61% 29.86 in 10.0 mi NNW 13.8 mph 31.1 mph N/A   Overcast
10:53 PM 48.9 °F - 37.0 °F 64% 29.92 in 10.0 mi North 13.8 mph 25.3 mph N/A   Scattered Clouds
11:53 PM 46.0 °F 41.9 °F 28.9 °F 51% 29.98 in 10.0 mi North 8.1 mph 16.1 mph N/A   Clear